Regional Weather Roundup
Issued by NWS Grand Forks, ND

Home | Current Version | Previous Version | Text Only | Print | Product List | Glossary Off
Versions: 1 2 3 4 5 6 7 8 9 10 11 12 13 14 15 16 17 18 19 20 21 22 23 24 25 26 27 28 29 30 31 32 33 34 35 36 37 38 39 40 41 42 43 44 45 46 47 48 49 50

289
ASUS43 KFGF 220031
RWRFGF
PRAIRIE TO PINES  WEATHER ROUNDUP
NATIONAL WEATHER SERVICE EASTERN NORTH DAKOTA/GRAND FORKS ND
700 PM CDT MON AUG 21 2017

 **SATELLITE DATA USED TO AUGMENT SKY COVER AT AUTOMATED STATIONS**
 *****  WEATHER ACROSS EASTERN NORTH DAKOTA  *****

CITY           SKY/WX    TMP DP  RH WIND       PRES   REMARKS
GRAND FORKS    FAIR      72  57  59 NW7       29.88S
6HR MIN TEMP:  69; 6HR MAX TEMP:  76; 6HR PCP: TRACE;

GRAND FRKS AFB FAIR      71  54  54 NW13      29.90R
DEVILS LAKE    FAIR      69  47  45 N14       29.98R
6HR MIN TEMP:  62; 6HR MAX TEMP:  73; 6HR PCP: TRACE;

FARGO          FAIR      73  59  61 NW15      29.89R
WAHPETON ARPT  FAIR      70  57  64 NW10      29.90S
$$

 ***** WEATHER ACROSS CENTRAL AND WESTERN NORTH DAKOTA  *****

CITY           SKY/WX    TMP DP  RH WIND       PRES   REMARKS
BISMARCK       FAIR      75  39  27 NW13G26   30.05R
6HR MIN TEMP:  70; 6HR MAX TEMP:  78;

MINOT          FAIR      73  39  29 NW13G26   30.04R
6HR MIN TEMP:  70; 6HR MAX TEMP:  76;

JAMESTOWN      FAIR      71  50  47 NW17G28   29.96R
6HR MIN TEMP:  67; 6HR MAX TEMP:  75;

MINOT AFB      FAIR      73  38  28 N17G24    30.03R
GARRISON         N/A     72  38  29 N17G28    30.05R
WILLISTON      FAIR      75  35  23 N15       30.10S
6HR MIN TEMP:  67; 6HR MAX TEMP:  77;

DICKINSON      FAIR      73  38  27 N16G26    30.10R
6HR MIN TEMP:  68; 6HR MAX TEMP:  76;

HETTINGER      FAIR      74  41  30 N15       30.12S
6HR MIN TEMP:  69; 6HR MAX TEMP:  77;

$$

 *****  OTHER AIRPORT OBSERVATIONS IN OUR AREA  *****

CITY           SKY/WX    TMP DP  RH WIND       PRES   REMARKS
WALHALLA       FAIR      66  64  94 N13       29.95R
GRAFTON AIRPOR FAIR      63  55  77 N6        29.94R
VALLEY CITY AR   N/A     72  54  53 NW15G22   29.96R
CANDO          FAIR      66  46  48 NW14      30.01R
CAVALIER APRT  FAIR      66  57  72 N13G18    29.94R
GWINNER        PTCLDY    72  59  64 NW9       29.93R
SHEYENNE NWR     N/A     75  58  54 N7        29.95S
ROLLA          FAIR      66  43  42 NW14      30.01R
 ***** THE ABOVE OBSERVATIONS ARE NON NWS ARE NOT QUALITY
       CONTROLLED AND MAY MIS-REPORT RAIN FOR SNOW...
$$

  *****  WEATHER ACROSS NORTHERN MINNESOTA  *****

CITY           SKY/WX    TMP DP  RH WIND       PRES   REMARKS
FLAG ISLAND    PTSUNNY   63  55  77 NE5       29.89S
WARROAD        PTSUNNY   63  57  82 NW5       29.91S
ROSEAU           N/A     64  57  77 N9        29.90S
HALLOCK        FAIR      68  54  60 NW9       29.91R
THF RVR FALLS  PTSUNNY   70  51  51 W10       29.90S
6HR MIN TEMP:  66; 6HR MAX TEMP:  72; 6HR PCP: TRACE;

BAUDETTE       LGT RAIN  62  58  86 S3        29.89R
6HR MIN TEMP:  62; 6HR MAX TEMP:  71; 6HR PCP: TRACE;

WASKISH        CLOUDY    57  55  94 CALM      29.89F
CROOKSTON      FAIR      72  54  53 NW7       29.89S
STEPHEN NDAWN    N/A     68  54  60 N6          N/A
GREENBUSH NDAW   N/A     64  61  88 NW2         N/A
$$
  *****  WEATHER ACROSS CENTRAL AND WEST MINNESOTA  *****

CITY           SKY/WX    TMP DP  RH WIND       PRES   REMARKS
FOSSTON        FAIR      66  57  72 N5        29.90S
BEMIDJI        CLOUDY    63  59  88 NE5       29.89S
PARK RAPIDS    CLOUDY    71  60  68 CALM      29.86F
6HR MIN TEMP:  66; 6HR MAX TEMP:  73;

ELBOW LAKE     CLOUDY    70  62  76 NW6       29.90R HAZE
WADENA         CLOUDY    68  63  83 W6        29.87S
DETROIT LAKES  FAIR      70  61  73 W7        29.89F
MOORHEAD       FAIR     N/A N/A N/A NW14      29.90R
FERGUS FALLS   FAIR      70  61  73 NW13      29.88S
MORRIS MN      FAIR      72  63  73 NW9       29.90R
STAPLES        CLOUDY    68  63  83 SW5       29.87R
$$
  *****  WEATHER ELSEWHERE ACROSS MINNESOTA  *****

CITY           SKY/WX    TMP DP  RH WIND       PRES   REMARKS
DULUTH         CLOUDY    63  60  90 N5        29.85F THUNDER
6HR MIN TEMP:  63; 6HR MAX TEMP:  66; 6HR PCP: TRACE;

INTRNTL FALLS  NOT AVBL
ELY            LGT RAIN  63  57  82 CALM      29.89F
CLOQUET        TSTM      64  61  88 CALM      29.84F
WHEATON        FAIR      72  59  64 NW7       29.92R
BRAINERD       PTSUNNY   70  63  78 S8        29.85F
6HR MIN TEMP:  65; 6HR MAX TEMP:  73;

HIBBING        PTSUNNY   61  58  90 NE3       29.87F
6HR MIN TEMP:  60; 6HR MAX TEMP:  66; 6HR PCP:  0.12;

ALEXANDRIA     CLOUDY    68  62  81 W7        29.90S
6HR MIN TEMP:  65; 6HR MAX TEMP:  70;

SAINT CLOUD    CLOUDY    69  67  93 S6        29.87F
6HR MIN TEMP:  64; 6HR MAX TEMP:  69; 6HR PCP: TRACE;

MINNEAPOLIS    CLOUDY    70  65  84 W7        29.88R
6HR MIN TEMP:  69; 6HR MAX TEMP:  79; 6HR PCP:  0.19;

$$

  *****  WEATHER ACROSS SOUTH DAKOTA  *****

CITY           SKY/WX    TMP DP  RH WIND       PRES   REMARKS
SIOUX FALLS    PTSUNNY   71  66  84 SW6       29.98S
6HR MIN TEMP:  67; 6HR MAX TEMP:  72; 6HR PCP:  1.54;

BROOKINGS      PTSUNNY   71  63  75 NW7       29.98R
WATERTOWN      FAIR      72  62  71 NW12      29.95R
6HR MIN TEMP:  64; 6HR MAX TEMP:  74;

HURON          PTSUNNY   79  65  62 N10       29.96R
6HR MIN TEMP:  67; 6HR MAX TEMP:  79;

SISSETON         N/A     74  61  63 NW12      29.90R
ABERDEEN       FAIR      77  54  44 N15       29.95R
6HR MIN TEMP:  61; 6HR MAX TEMP:  80;

MITCHELL       FAIR      75  65  70 NW3       29.99R
PIERRE         FAIR      78  46  32 N17G26    30.01R
6HR MIN TEMP:  62; 6HR MAX TEMP:  81;

MOBRIDGE       FAIR      76  49  38 N15G22    30.01R
RAPID CITY     FAIR      78  38  23 N17       30.14R
6HR MIN TEMP:  69; 6HR MAX TEMP:  80;

$$

  *****  SOME WEATHER IN NEARBY STATES *****

CITY           SKY/WX    TMP DP  RH WIND       PRES   REMARKS
GLASGOW MT     FAIR      76  34  21 NW12      30.13S
6HR MIN TEMP:  70; 6HR MAX TEMP:  77;

GREAT FALLS MT FAIR      78  33  19 E7        30.15F
6HR MIN TEMP:  65; 6HR MAX TEMP:  80;

CHEYENNE WY    FAIR      76  38  25 NE15      30.24S
6HR MIN TEMP:  70; 6HR MAX TEMP:  79;

SCOTTSBLUFF NE FAIR      82  47  29 NE8       30.14R
6HR MIN TEMP:  74; 6HR MAX TEMP:  84;

OMAHA NE       PTSUNNY   81  72  74 E13       29.93F
6HR MIN TEMP:  77; 6HR MAX TEMP:  83;

DES MOINES IA  TSTM      67  65  93 E7        30.00R FOG
6HR MIN TEMP:  68; 6HR MAX TEMP:  85; 6HR PCP:  0.09;

DAVENPORT IA   FAIR      78  70  76 S6        29.99S
6HR MIN TEMP:  73; 6HR MAX TEMP:  81;

CHICAGO IL     MOCLDY    81  67  62 SW12G18   29.99F
6HR MIN TEMP:  80; 6HR MAX TEMP:  87; 6HR PCP: TRACE;

EAU CLAIRE WI  MOCLDY    71  65  81 NW7       29.83F
6HR MIN TEMP:  71; 6HR MAX TEMP:  78; 6HR PCP: TRACE;

LA CROSSE WI   LGT RAIN  71  67  87 SW5       29.91F
6HR MIN TEMP:  71; 6HR MAX TEMP:  81; 6HR PCP:  0.14;

$$

  *****  SOME NATIONAL WEATHER *****

CITY           SKY/WX    TMP DP  RH WIND       PRES   REMARKS
LA GUARDIA NY  MOCLDY    81  70  69 S10       30.10R
6HR MIN TEMP:  81; 6HR MAX TEMP:  88;

RALEIGH NC     FAIR      85  71  63 S6        30.16S HX  90
6HR MIN TEMP:  85; 6HR MAX TEMP:  91;

ATLANTA GA     FAIR      87  68  52 SE7       30.14S HX  90
6HR MIN TEMP:  87; 6HR MAX TEMP:  91;

NEW ORLEANS LA TSTM      80  75  84 N13G18    30.08R
6HR MIN TEMP:  80; 6HR MAX TEMP:  93; 6HR PCP:  0.04;

OKLAHOMA CITY  FAIR      88  69  53 S13       30.01F HX  92
6HR MIN TEMP:  85; 6HR MAX TEMP:  91;

ALBUQUERQUE NM PTSUNNY   77  56  48 VRB3      30.19F
6HR MIN TEMP:  67; 6HR MAX TEMP:  78;

SALT LAKE CITY FAIR      92  44  19 NW8G16    30.08F
6HR MIN TEMP:  82; 6HR MAX TEMP:  93;

LOS ANGELES CA FAIR      73  62  68 W15       29.97F
6HR MIN TEMP:  71; 6HR MAX TEMP:  76;

BOISE ID       FAIR      88  38  17 W9        30.05F
6HR MIN TEMP:  71; 6HR M



USA.gov is the U.S. government's official web portal to all federal, state and local government web resources and services.